GW0175 Weather Reports


Display with metric or nautical units.
time (UTC)temp
F
wind
direction
speed
MPH
gust
MPH
rain 1hr
in
rain 24hr
in
rain mn
in
humidity
%
barometer
mb
20260901211055 97 168 2.0 7.0 0.00 0.00 0.00 28 1011.8
20260901210550 98 90 1.0 9.0 0.00 0.00 0.00 28 1011.8
20260901210047 98 140 0.0 4.0 0.00 0.00 0.00 28 1012.0
20260901205542 96 175 8.0 8.0 0.00 0.00 0.00 28 1012.2
20260901205041 99 160 13.0 13.0 0.00 0.00 0.00 26 1012.1
20260901204538 100 168 4.0 13.0 0.00 0.00 0.00 26 1012.3
20260901204033 99 112 2.0 7.0 0.00 0.00 0.00 27 1012.3
20260901203527 98 178 3.0 10.0 0.00 0.00 0.00 28 1012.5
20260901203022 100 117 3.0 3.0 0.00 0.00 0.00 27 1012.7
20260901202517 98 157 3.0 6.0 0.00 0.00 0.00 28 1012.7
20260901202013 98 170 5.0 6.0 0.00 0.00 0.00 27 1013.0
20260901201508 98 182 4.0 13.0 0.00 0.00 0.00 28 1012.9
20260901201003 97 213 3.0 7.0 0.00 0.00 0.00 28 1013.2
20260901200457 98 229 6.0 9.0 0.00 0.00 0.00 28 1013.1
20260901195956 98 174 9.0 9.0 0.00 0.00 0.00 28 1013.3
20260901195455 97 162 2.0 4.0 0.00 0.00 0.00 29 1013.1
20260901194949 97 144 4.0 8.0 0.00 0.00 0.00 28 1013.2
20260901194444 97 191 6.0 7.0 0.00 0.00 0.00 28 1013.3
20260901193940 96 169 3.0 12.0 0.00 0.00 0.00 28 1013.4
20260901193440 97 156 3.0 6.0 0.00 0.00 0.00 27 1013.2
20260901192939 96 177 8.0 11.0 0.00 0.00 0.00 29 1013.1
20260901192435 97 240 7.0 7.0 0.00 0.00 0.00 28 1013.2
20260901191931 97 145 1.0 6.0 0.00 0.00 0.00 30 1013.7
20260901191427 96 187 4.0 10.0 0.00 0.00 0.00 30 1013.4
20260901190922 96 110 3.0 9.0 0.00 0.00 0.00 31 1013.7
20260901190422 97 113 5.0 5.0 0.00 0.00 0.00 30 1013.7
20260901185920 95 243 2.0 9.0 0.00 0.00 0.00 31 1013.7
20260901185420 96 155 5.0 8.0 0.00 0.00 0.00 31 1013.7
20260901184914 95 180 1.0 4.0 0.00 0.00 0.00 31 1013.8
20260901184410 95 186 9.0 9.0 0.00 0.00 0.00 32 1013.8
20260901183905 96 209 0.0 6.0 0.00 0.00 0.00 31 1013.9
20260901183405 94 166 7.0 9.0 0.00 0.00 0.00 32 1014.2
20260901182901 94 160 7.0 9.0 0.00 0.00 0.00 33 1014.4
20260901182355 94 169 3.0 8.0 0.00 0.00 0.00 34 1014.4
20260901181850 93 190 5.0 5.0 0.00 0.00 0.00 34 1014.6
20260901181345 94 197 3.0 5.0 0.00 0.00 0.00 34 1014.5
20260901180844 93 235 2.0 7.0 0.00 0.00 0.00 35 1014.4
20260901180343 93 194 3.0 6.0 0.00 0.00 0.00 35 1014.6
20260901175842 92 177 5.0 8.0 0.00 0.00 0.00 35 1014.8
20260901175337 93 135 2.0 7.0 0.00 0.00 0.00 35 1014.9
20260901174832 93 90 2.0 6.0 0.00 0.00 0.00 36 1015.0
20260901174328 92 243 4.0 6.0 0.00 0.00 0.00 37 1014.9
20260901173823 91 150 2.0 8.0 0.00 0.00 0.00 38 1014.9
20260901173318 91 202 4.0 5.0 0.00 0.00 0.00 38 1014.9
20260901172815 91 192 1.0 8.0 0.00 0.00 0.00 38 1015.1
20260901172314 91 189 2.0 12.0 0.00 0.00 0.00 39 1014.9
20260901171812 90 135 3.0 7.0 0.00 0.00 0.00 41 1015.1
20260901171311 89 180 5.0 11.0 0.00 0.00 0.00 41 1015.4
20260901170810 89 146 2.0 8.0 0.00 0.00 0.00 41 1015.3
20260901170305 90 171 7.0 8.0 0.00 0.00 0.00 40 1015.3
20260901165803 89 183 3.0 9.0 0.00 0.00 0.00 42 1015.5
20260901165258 88 214 5.0 9.0 0.00 0.00 0.00 43 1015.3
20260901164755 89 164 3.0 7.0 0.00 0.00 0.00 42 1015.4
20260901164250 88 179 6.0 10.0 0.00 0.00 0.00 42 1015.4
20260901163745 89 225 5.0 6.0 0.00 0.00 0.00 42 1015.5
20260901163245 88 120 2.0 6.0 0.00 0.00 0.00 44 1015.4
20260901162740 88 194 5.0 6.0 0.00 0.00 0.00 43 1015.4
20260901162239 87 135 3.0 6.0 0.00 0.00 0.00 45 1015.6
20260901161738 86 235 0.0 7.0 0.00 0.00 0.00 46 1015.3
20260901161233 86 191 5.0 8.0 0.00 0.00 0.00 46 1015.5
20260901160729 86 206 3.0 7.0 0.00 0.00 0.00 47 1015.3
20260901160225 86 144 2.0 6.0 0.00 0.00 0.00 47 1015.3
20260901155723 86 201 4.0 7.0 0.00 0.00 0.00 47 1015.3
20260901155218 85 214 5.0 9.0 0.00 0.00 0.00 48 1015.4
20260901154714 84 172 2.0 7.0 0.00 0.00 0.00 49 1015.5
20260901154208 84 186 1.0 13.0 0.00 0.00 0.00 49 1015.3
20260901153704 84 158 6.0 11.0 0.00 0.00 0.00 50 1015.6
20260901153157 84 156 4.0 6.0 0.00 0.00 0.00 49 1015.3
20260901152652 84 152 4.0 8.0 0.00 0.00 0.00 51 1015.4
20260901152151 83 227 6.0 9.0 0.00 0.00 0.00 52 1015.4
20260901151647 82 179 7.0 9.0 0.00 0.00 0.00 53 1015.7
20260901151146 82 188 7.0 15.0 0.00 0.00 0.00 53 1015.6
20260901150645 82 162 4.0 14.0 0.00 0.00 0.00 53 1015.6
20260901150143 82 194 3.0 9.0 0.00 0.00 0.00 53 1015.4
20260901145641 82 192 5.0 13.0 0.00 0.00 0.00 53 1015.3
20260901145136 82 190 5.0 12.0 0.00 0.00 0.00 54 1015.5
20260901144632 82 194 5.0 9.0 0.00 0.00 0.00 54 1015.6
20260901144127 81 194 5.0 7.0 0.00 0.00 0.00 55 1015.5
20260901143622 81 191 0.0 9.0 0.00 0.00 0.00 56 1015.7
20260901143118 80 180 4.0 7.0 0.00 0.00 0.00 55 1015.6
20260901142614 80 152 7.0 7.0 0.00 0.00 0.00 56 1015.6
20260901142113 80 152 5.0 7.0 0.00 0.00 0.00 56 1015.8
20260901141608 79 178 3.0 5.0 0.00 0.00 0.00 57 1015.8
20260901141103 79 191 4.0 5.0 0.00 0.00 0.00 57 1015.8
20260901140601 78 223 4.0 4.0 0.00 0.00 0.00 57 1015.7
20260901140056 78 180 2.0 5.0 0.00 0.00 0.00 58 1015.8
20260901135555 77 175 1.0 5.0 0.00 0.00 0.00 59 1015.7
20260901135050 77 150 2.0 4.0 0.00 0.00 0.00 59 1015.6
20260901134546 77 163 3.0 4.0 0.00 0.00 0.00 59 1015.6
20260901134041 76 105 0.0 2.0 0.00 0.00 0.00 60 1015.6
20260901133540 75 162 0.0 2.0 0.00 0.00 0.00 61 1015.6
20260901133039 75 160 0.0 1.0 0.00 0.00 0.00 61 1015.3
20260901132539 74 160 0.0 1.0 0.00 0.00 0.00 61 1015.5
20260901132039 74 172 0.0 0.0 0.00 0.00 0.00 62 1015.4
20260901131533 74 172 0.0 2.0 0.00 0.00 0.00 63 1015.1
20260901131028 73 180 1.0 3.0 0.00 0.00 0.00 63 1015.4
20260901130528 73 148 2.0 2.0 0.00 0.00 0.00 63 1015.1
20260901130027 73 175 1.0 2.0 0.00 0.00 0.00 63 1015.4
20260901125525 73 180 0.0 2.0 0.00 0.00 0.00 63 1015.4
20260901125015 73 145 0.0 2.0 0.00 0.00 0.00 63 1015.3
20260901124510 73 180 1.0 2.0 0.00 0.00 0.00 63 1014.8
20260901124009 73 157 2.0 3.0 0.00 0.00 0.00 63 1014.7
20260901123505 73 174 1.0 4.0 0.00 0.00 0.00 63 1014.7
20260901123004 73 150 2.0 4.0 0.00 0.00 0.00 63 1014.5
20260901122503 72 147 3.0 3.0 0.00 0.00 0.00 63 1014.6
20260901121956 72 176 4.0 4.0 0.00 0.00 0.00 63 1014.4
20260901121452 73 169 4.0 5.0 0.00 0.00 0.00 63 1014.6
20260901120947 73 162 3.0 4.0 0.00 0.00 0.00 62 1014.3
20260901120447 73 147 2.0 4.0 0.00 0.00 0.00 62 1014.5
20260901115942 73 168 1.0 4.0 0.00 0.00 0.00 61 1014.4
20260901115437 73 178 3.0 4.0 0.00 0.00 0.00 61 1014.3
20260901114934 73 161 2.0 3.0 0.00 0.00 0.00 61 1014.2
20260901114429 73 185 1.0 3.0 0.00 0.00 0.00 62 1014.2
20260901113927 73 157 0.0 3.0 0.00 0.00 0.00 62 1014.3
20260901113427 73 151 0.0 2.0 0.00 0.00 0.00 62 1014.1
20260901112922 73 173 1.0 2.0 0.00 0.00 0.00 62 1014.2
20260901112417 73 151 0.0 2.0 0.00 0.00 0.00 62 1014.3
20260901111912 73 160 0.0 3.0 0.00 0.00 0.00 62 1013.9
20260901111410 73 180 1.0 3.0 0.00 0.00 0.00 62 1014.2
20260901110909 74 168 2.0 3.0 0.00 0.00 0.00 61 1014.1
20260901110405 74 172 2.0 3.0 0.00 0.00 0.00 60 1014.1
20260901105901 74 172 2.0 2.0 0.00 0.00 0.00 60 1013.9
20260901105356 75 168 1.0 3.0 0.00 0.00 0.00 59 1014.1
20260901104852 75 161 2.0 3.0 0.00 0.00 0.00 59 1013.8
20260901104347 75 151 0.0 3.0 0.00 0.00 0.00 59 1013.7
20260901103842 75 188 0.0 2.0 0.00 0.00 0.00 59 1014.2
20260901103336 75 195 0.0 2.0 0.00 0.00 0.00 59 1014.1
20260901102831 75 114 0.0 2.0 0.00 0.00 0.00 58 1014.1
20260901102326 75 157 1.0 2.0 0.00 0.00 0.00 59 1014.1
20260901101821 75 195 0.0 2.0 0.00 0.00 0.00 58 1013.8
20260901101320 75 157 0.0 3.0 0.00 0.00 0.00 58 1014.2
20260901100815 75 154 1.0 4.0 0.00 0.00 0.00 58 1013.8
20260901100310 75 194 1.0 4.0 0.00 0.00 0.00 58 1013.8
20260901095808 75 151 2.0 4.0 0.00 0.00 0.00 58 1013.7
20260901095307 75 145 0.0 3.0 0.00 0.00 0.00 58 1013.8
20260901094801 75 155 3.0 4.0 0.00 0.00 0.00 58 1013.5
20260901094255 75 150 2.0 5.0 0.00 0.00 0.00 59 1013.6
20260901093750 75 186 3.0 4.0 0.00 0.00 0.00 58 1013.9
20260901093249 75 173 0.0 2.0 0.00 0.00 0.00 58 1013.6
20260901092746 76 157 1.0 3.0 0.00 0.00 0.00 58 1013.6
20260901092241 76 191 2.0 6.0 0.00 0.00 0.00 58 1013.6
20260901091736 76 162 3.0 5.0 0.00 0.00 0.00 58 1013.7
20260901091232 76 160 4.0 5.0 0.00 0.00 0.00 58 1013.9
20260901090726 76 180 3.0 5.0 0.00 0.00 0.00 57 1013.8
20260901090222 76 175 5.0 5.0 0.00 0.00 0.00 57 1014.1
20260901085718 76 145 1.0 6.0 0.00 0.00 0.00 57 1013.8
20260901085213 77 180 3.0 5.0 0.00 0.00 0.00 56 1013.7
20260901084709 77 168 5.0 7.0 0.00 0.00 0.00 56 1013.5
20260901084205 76 159 5.0 6.0 0.00 0.00 0.00 56 1013.7
20260901083659 77 165 5.0 5.0 0.00 0.00 0.00 56 1013.9
20260901083158 77 177 3.0 4.0 0.00 0.00 0.00 55 1013.5
20260901082652 77 180 3.0 5.0 0.00 0.00 0.00 54 1013.7
20260901082148 78 180 3.0 5.0 0.00 0.00 0.00 53 1013.7
20260901081643 78 158 4.0 5.0 0.00 0.00 0.00 53 1013.8
20260901081142 78 188 2.0 6.0 0.00 0.00 0.00 52 1013.6
20260901080637 78 180 4.0 5.0 0.00 0.00 0.00 52 1013.9
20260901080136 78 189 3.0 5.0 0.00 0.00 0.00 51 1013.4
20260901075631 78 190 5.0 5.0 0.00 0.00 0.00 51 1013.6
20260901075131 78 154 2.0 4.0 0.00 0.00 0.00 51 1013.6
20260901074630 78 165 0.0 2.0 0.00 0.00 0.00 52 1013.8
20260901074125 78 261 0.0 1.0 0.00 0.00 0.00 51 1013.7
20260901073622 79 206 0.0 3.0 0.00 0.00 0.00 49 1013.8
20260901073117 79 166 2.0 3.0 0.00 0.00 0.00 50 1013.7
20260901072613 78 154 0.0 2.0 0.00 0.00 0.00 51 1013.8
20260901072107 78 78 0.0 2.0 0.00 0.00 0.00 51 1013.7
20260901071602 78 105 1.0 2.0 0.00 0.00 0.00 50 1013.5
20260901071101 78 140 0.0 2.0 0.00 0.00 0.00 50 1013.7
20260901070555 78 195 0.0 2.0 0.00 0.00 0.00 49 1013.8
20260901070051 79 90 0.0 1.0 0.00 0.00 0.00 49 1013.6
20260901065545 79 157 0.0 2.0 0.00 0.00 0.00 49 1013.5
20260901065045 79 173 0.0 1.0 0.00 0.00 0.00 48 1013.8
20260901064542 80 120 0.0 3.0 0.00 0.00 0.00 48 1013.8
20260901064038 81 176 2.0 4.0 0.00 0.00 0.00 48 1013.8
20260901063535 81 162 1.0 5.0 0.00 0.00 0.00 47 1014.1
20260901063031 82 180 1.0 2.0 0.00 0.00 0.00 46 1014.1
20260901062526 82 174 1.0 3.0 0.00 0.00 0.00 46 1014.1
20260901062022 82 194 3.0 7.0 0.00 0.00 0.00 45 1013.6
20260901061518 82 192 4.0 5.0 0.00 0.00 0.00 45 1013.6
20260901061013 83 169 5.0 7.0 0.00 0.00 0.00 45 1013.5
20260901060513 83 198 3.0 7.0 0.00 0.00 0.00 45 1013.5
20260901060008 83 195 3.0 6.0 0.00 0.00 0.00 44 1013.5
20260901055504 84 158 3.0 7.0 0.00 0.00 0.00 44 1013.6
20260901055001 84 180 3.0 7.0 0.00 0.00 0.00 44 1013.5
20260901054457 84 159 8.0 10.0 0.00 0.00 0.00 44 1013.4
20260901053953 84 156 2.0 11.0 0.00 0.00 0.00 43 1013.5
20260901053448 85 162 6.0 10.0 0.00 0.00 0.00 44 1013.2
20260901052944 85 181 7.0 12.0 0.00 0.00 0.00 44 1013.2
20260901052439 85 190 5.0 8.0 0.00 0.00 0.00 45 1013.1
20260901051937 85 155 5.0 9.0 0.00 0.00 0.00 45 1013.1
20260901051433 85 167 6.0 8.0 0.00 0.00 0.00 44 1013.1
20260901050927 85 195 5.0 9.0 0.00 0.00 0.00 44 1013.1
20260901050423 86 180 7.0 10.0 0.00 0.00 0.00 44 1013.1
20260901045923 86 181 6.0 10.0 0.00 0.00 0.00 44 1013.1
20260901045418 86 180 7.0 9.0 0.00 0.00 0.00 43 1012.7
20260901044913 86 180 6.0 10.0 0.00 0.00 0.00 43 1013.0
20260901044409 87 161 10.0 15.0 0.00 0.00 0.00 43 1013.0
20260901043905 87 163 7.0 12.0 0.00 0.00 0.00 42 1013.1
20260901043401 87 169 5.0 13.0 0.00 0.00 0.00 42 1013.0
20260901042901 87 165 8.0 11.0 0.00 0.00 0.00 41 1012.9
20260901042355 88 212 7.0 19.0 0.00 0.00 0.00 40 1013.1
20260901041851 88 146 7.0 17.0 0.00 0.00 0.00 38 1012.9
20260901041345 89 162 7.0 15.0 0.00 0.00 0.00 38 1012.7
20260901040839 89 159 10.0 20.0 0.00 0.00 0.00 38 1012.9
20260901040339 89 167 10.0 21.0 0.00 0.00 0.00 37 1012.4
20260901035833 89 182 6.0 14.0 0.00 0.00 0.00 36 1012.5
20260901035331 89 151 7.0 14.0 0.00 0.00 0.00 36 1012.5
20260901034824 89 182 8.0 13.0 0.00 0.00 0.00 35 1012.4
20260901034319 90 162 3.0 9.0 0.00 0.00 0.00 34 1012.4
20260901033814 89 189 3.0 12.0 0.00 0.00 0.00 34 1012.3
20260901033313 89 173 4.0 9.0 0.00 0.00 0.00 34 1012.3
20260901032812 89 170 4.0 9.0 0.00 0.00 0.00 34 1012.0
20260901032311 90 170 5.0 8.0 0.00 0.00 0.00 33 1011.9
20260901031806 90 151 5.0 10.0 0.00 0.00 0.00 33 1012.2
20260901031302 90 157 4.0 9.0 0.00 0.00 0.00 33 1012.0
20260901030802 90 182 9.0 9.0 0.00 0.00 0.00 33 1011.9
20260901030258 90 171 4.0 7.0 0.00 0.00 0.00 32 1012.0
20260901025756 90 111 5.0 8.0 0.00 0.00 0.00 32 1011.4
20260901025251 90 163 3.0 8.0 0.00 0.00 0.00 32 1011.8
20260901024746 90 120 3.0 6.0 0.00 0.00 0.00 32 1011.5
20260901024245 90 158 4.0 7.0 0.00 0.00 0.00 32 1011.4
20260901023743 90 166 6.0 6.0 0.00 0.00 0.00 32 1011.1
20260901023239 91 158 6.0 7.0 0.00 0.00 0.00 32 1011.1
20260901022734 90 196 3.0 7.0 0.00 0.00 0.00 31 1010.7
20260901022229 90 153 4.0 5.0 0.00 0.00 0.00 32 1010.8
20260901021725 90 156 2.0 4.0 0.00 0.00 0.00 31 1010.4
20260901021220 90 152 2.0 5.0 0.00 0.00 0.00 31 1010.3
20260901020715 90 168 4.0 5.0 0.00 0.00 0.00 31 1010.3
20260901020211 91 170 2.0 4.0 0.00 0.00 0.00 31 1010.2
20260901015706 91 190 2.0 5.0 0.00 0.00 0.00 30 1010.0
20260901015201 91 151 3.0 4.0 0.00 0.00 0.00 30 1009.9
20260901014655 92 150 3.0 4.0 0.00 0.00 0.00 30 1009.9
20260901014151 92 114 0.0 4.0 0.00 0.00 0.00 30 1009.7
20260901013647 92 163 3.0 5.0 0.00 0.00 0.00 30 1009.8
20260901013142 93 185 2.0 5.0 0.00 0.00 0.00 30 1009.9
20260901012637 94 156 4.0 6.0 0.00 0.00 0.00 29 1009.8
20260901012132 94 146 2.0 5.0 0.00 0.00 0.00 29 1009.7
20260901011628 94 152 2.0 7.0 0.00 0.00 0.00 29 1009.7
20260901011126 95 185 3.0 7.0 0.00 0.00 0.00 29 1009.7
20260901010622 95 156 4.0 9.0 0.00 0.00 0.00 28 1009.8
20260901010121 95 167 3.0 6.0 0.00 0.00 0.00 28 1009.6
20260901005620 96 157 2.0 4.0 0.00 0.00 0.00 27 1009.7
20260901005116 96 177 6.0 7.0 0.00 0.00 0.00 27 1009.7
20260901004615 97 180 2.0 5.0 0.00 0.00 0.00 26 1009.5
20260901004110 97 206 2.0 7.0 0.00 0.00 0.00 26 1009.9
20260901003605 97 176 2.0 8.0 0.00 0.00 0.00 27 1009.7
20260901003103 98 160 1.0 4.0 0.00 0.00 0.00 26 1009.7
20260901002558 98 150 7.0 7.0 0.00 0.00 0.00 26 1009.8
20260901002053 98 150 4.0 10.0 0.00 0.00 0.00 27 1009.7
20260901001553 98 179 5.0 9.0 0.00 0.00 0.00 27 1009.7
20260901001048 98 103 2.0 5.0 0.00 0.00 0.00 26 1009.8
20260901000543 98 176 6.0 9.0 0.00 0.00 0.00 26 1009.7
20260901000039 99 81 0.0 6.0 0.00 0.00 0.00 25 1009.7
20260831235533 98 147 3.0 10.0 0.00 0.00 0.00 25 1009.8
20260831235029 100 164 7.0 10.0 0.00 0.00 0.00 25 1009.7
20260831234528 100 133 4.0 7.0 0.00 0.00 0.00 24 1009.6
20260831234025 99 180 3.0 9.0 0.00 0.00 0.00 24 1009.7
20260831233519 100 165 3.0 7.0 0.00 0.00 0.00 24 1009.6
20260831233015 100 148 2.0 7.0 0.00 0.00 0.00 24 1009.4
20260831232510 100 102 5.0 11.0 0.00 0.00 0.00 24 1009.6
20260831232006 100 180 2.0 9.0 0.00 0.00 0.00 24 1009.6
20260831231502 100 163 5.0 10.0 0.00 0.00 0.00 24 1009.5
20260831230957 99 147 3.0 7.0 0.00 0.00 0.00 25 1009.7
20260831230453 99 190 5.0 13.0 0.00 0.00 0.00 25 1009.9
20260831225947 99 176 4.0 11.0 0.00 0.00 0.00 24 1009.9
20260831225443 100 169 3.0 8.0 0.00 0.00 0.00 24 1009.7
20260831224938 99 140 3.0 19.0 0.00 0.00 0.00 24 1009.6
20260831224437 100 133 3.0 12.0 0.00 0.00 0.00 24 1009.8
20260831223932 101 58 4.0 7.0 0.00 0.00 0.00 24 1009.8
20260831223428 101 204 3.0 8.0 0.00 0.00 0.00 25 1010.0
20260831222924 101 142 3.0 9.0 0.00 0.00 0.00 25 1009.8
20260831222420 101 190 0.0 7.0 0.00 0.00 0.00 24 1010.2
20260831221915 100 148 3.0 8.0 0.00 0.00 0.00 25 1010.0
20260831221411 99 188 6.0 9.0 0.00 0.00 0.00 25 1010.2
20260831220906 99 183 3.0 7.0 0.00 0.00 0.00 24 1010.2
20260831220401 100 174 3.0 7.0 0.00 0.00 0.00 23 1010.4
20260831215856 100 160 3.0 12.0 0.00 0.00 0.00 23 1010.4
20260831215352 100 154 3.0 7.0 0.00 0.00 0.00 21 1010.6
20260831214848 99 176 7.0 10.0 0.00 0.00 0.00 24 1010.8
20260831214345 100 180 4.0 13.0 0.00 0.00 0.00 25 1010.8
20260831213845 100 179 6.0 8.0 0.00 0.00 0.00 25 1011.0
20260831213342 100 126 0.0 9.0 0.00 0.00 0.00 25 1010.9
20260831212837 101 210 2.0 13.0 0.00 0.00 0.00 26 1011.3
20260831212334 101 108 9.0 9.0 0.00 0.00 0.00 26 1011.1
20260831211832 101 90 0.0 2.0 0.00 0.00 0.00 25 1010.9